Terminal Aerodrome Forecast
Issued by NWS Upton, NY

Current Version | Previous Version | Text Only | Print | Product List | Glossary On
Versions: 1 2 3 4 5 6 7 8 9 10 11 12 13 14 15 16 17 18 19 20 21 22 23 24 25 26 27
000
FTUS41 KOKX 202300
TAFISP
TAF
KISP 202321Z 2100/2124 16008KT P6SM BKN040
     FM210300 14007KT P6SM BKN025
     FM210800 16008KT 5SM BR BKN015
      TEMPO 2109/2113 3SM -SHRA BR BKN007
     FM211300 VRB04KT 6SM BR BKN015
     FM211600 VRB05KT P6SM BKN025
     FM211900 VRB06KT P6SM SCT030 BKN250=

USA.gov is the U.S. government's official web portal to all federal, state and local government web resources and services.